Location: Home
(42.5358°N, 72.7383°W)
Time: 09:12:33
(UTC-04:00)

A-11 Canister half - Pass Details

Date: 03 July 2022
Orbit: 1514 x 1685 km, 47.2° (Epoch: 15 August)

Event Time Altitude Azimuth Distance (km) Brightness Sun altitude
Rises 00:43:31 0° 268° (W) 4,938 11.7 -24.4°
Reaches altitude 10° 00:46:45 10° 270° (W) 3,947 11.2 -24.5°
Maximum altitude 00:56:54 69° 354° (N) 1,760 9.4 -24.5°
Drops below altitude 10° 01:06:47 10° 77° (ENE) 3,853 11.3 -24.5°
Sets 01:09:54 0° 81° (E) 4,817 11.8 -24.4°
